Simultaneous Nadir Overpasses (SNOs) Predictions

Prediction of SNOs between AQUA and METOP-B Satellite Orbit:

Table of predicted SNOs for the next 14.0 days since TLE Epoch: 3/27/2020
Index Date (AQUA) Time (AQUA) Lat,Lon (AQUA) SZA (AQUA ) Date (METOP-B) Time (METOP-B) Lat,Lon (METOP-B) SZA (METOP-B ) Distance(km) Time Diff (sec)
1 03/29/2020 23:51:40 -73.62, -3.18 110.24 03/29/2020 23:50:28 -73.58, -3.87 110.23 21.93 72
2 03/30/2020 00:41:12 73.84, 163.97 70.00 03/30/2020 00:41:03 73.84, 164.06 69.99 2.81 9
3 03/30/2020 01:30:38 -73.87, -28.45 109.99 03/30/2020 01:31:44 -73.86, -28.55 110.00 3.18 66
4 04/01/2020 19:25:58 -73.75, 62.97 111.19 04/01/2020 19:24:48 -73.73, 62.89 111.19 3.24 70
5 04/01/2020 20:15:27 73.82,-129.54 68.88 04/01/2020 20:15:26 73.83,-129.54 68.89 1.72 1
6 04/01/2020 21:04:54 -73.90, 37.92 111.05 04/01/2020 21:06:06 -73.91, 37.97 111.05 2.03 72
7 04/04/2020 15:00:14 -73.79, 129.33 112.23 04/04/2020 14:59:10 -73.78, 129.40 112.23 2.30 64
8 04/04/2020 15:49:43 73.85, -63.19 67.83 04/04/2020 15:49:49 73.83, -63.14 67.81 2.93 6
9 04/04/2020 16:39:14 -74.14, 103.81 111.88 04/04/2020 16:40:24 -74.16, 104.98 111.91 35.61 70
10 04/07/2020 10:34:28 -73.77,-164.21 113.31 04/07/2020 10:33:32 -73.78,-164.20 113.30 0.39 56
11 04/07/2020 11:23:57 73.84, 3.27 66.75 04/07/2020 11:24:11 73.83, 3.25 66.74 2.22 14
12 04/07/2020 12:13:34 -74.44, 169.54 112.62 04/07/2020 12:14:41 -74.40, 172.00 112.75 73.45 67
13 04/10/2020 06:08:43 -73.77, -97.76 114.37 04/10/2020 06:07:55 -73.77, -97.81 114.36 1.48 48
14 04/10/2020 06:58:12 73.84, 69.72 65.70 04/10/2020 06:58:33 73.87, 69.76 65.72 3.28 21




NCC Satellite Simultaneous Nadir Overpasses (SNOs) Prediction Service
